This is the latest recevied weather packets stored in our database for station/object N0FDH. If no packets are shown the sender has not sent any weather packets the latest 10 day(s).
| Time | Temp. | Humidity | Pressure | Rain* | Wind** | Luminosity | Snow |
|---|---|---|---|---|---|---|---|
| 1777764397 | 16.11° C | 37% | 1010.7 hPa | 0 mm | - | 66 W/m² | - |
| 1777764095 | 16.11° C | 38% | 1010.9 hPa | 0 mm | - | 76 W/m² | - |
| 1777763791 | 16.11° C | 39% | 1010.9 hPa | 0 mm | - | 84 W/m² | - |
| 1777763490 | 16.11° C | 38% | 1011 hPa | 0 mm | - | 88 W/m² | - |
| 1777763187 | 16.11° C | 37% | 1011 hPa | 0 mm | - | 88 W/m² | - |
| 1777762886 | 16.11° C | 37% | 1011 hPa | 0 mm | - | 89 W/m² | - |
| 1777762581 | 16.11° C | 36% | 1011 hPa | 0 mm | - | 105 W/m² | - |
| 1777762278 | 16.67° C | 37% | 1011.1 hPa | 0 mm | - | 105 W/m² | - |
| 1777761974 | 16.67° C | 36% | 1011.2 hPa | 0 mm | - | 135 W/m² | - |
| 1777761671 | 16.67° C | 35% | 1011.3 hPa | 0 mm | - | 135 W/m² | - |
| 1777761369 | 16.67° C | 38% | 1011.5 hPa | 0 mm | - | 214 W/m² | - |
| 1777761068 | 16.11° C | 36% | 1011.5 hPa | 0 mm | - | 274 W/m² | - |
| 1777760764 | 16.11° C | 36% | 1011.3 hPa | 0 mm | - | 190 W/m² | - |
| 1777760461 | 16.11° C | 38% | 1011.5 hPa | 0 mm | - | 172 W/m² | - |
| 1777760156 | 15.56° C | 37% | 1011.6 hPa | 0 mm | - | 171 W/m² | - |
| 1777759854 | 15.56° C | 36% | 1011.5 hPa | 0 mm | - | 172 W/m² | - |
| 1777759549 | 15.56° C | 37% | 1011.6 hPa | 0 mm | - | 123 W/m² | - |
| 1777759246 | 15.56° C | 40% | 1011.7 hPa | 0 mm | - | 129 W/m² | - |
| 1777758943 | 15.56° C | 38% | 1011.7 hPa | 0 mm | - | 121 W/m² | - |
| 1777758640 | 16.67° C | 35% | 1011.8 hPa | 0 mm | - | 133 W/m² | - |
| 1777758337 | 16.67° C | 36% | 1012 hPa | 0 mm | - | 261 W/m² | - |
| 1777758035 | 16.67° C | 37% | 1011.9 hPa | 0 mm | - | 343 W/m² | - |
| 1777757731 | 16.11° C | 35% | 1012 hPa | 0 mm | - | 332 W/m² | - |
| 1777757429 | 16.11° C | 36% | 1012 hPa | 0 mm | - | 348 W/m² | - |
| 1777757128 | 16.11° C | 37% | 1012 hPa | 0 mm | - | 315 W/m² | - |
* Rain latest hour (hover to see other rain measurements)
** Current wind speed in m/s (hover to see current wind gust speed)